This is the latest recevied weather packets stored in our database for station/object K6CQU-13. If no packets are shown the sender has not sent any weather packets the latest 10 day(s).
| Time | Temp. | Humidity | Pressure | Rain* | Wind** | Luminosity | Snow |
|---|---|---|---|---|---|---|---|
| 1788113116 | 22.78° C | 56% | 1013.2 hPa | 0 mm | - | 721 W/m² | - |
| 1788112816 | 22.78° C | 57% | 1013.3 hPa | 0 mm | - | 709 W/m² | - |
| 1788112517 | 22.22° C | 57% | 1013.3 hPa | 0 mm | - | 699 W/m² | - |
| 1788112216 | 22.22° C | 57% | 1013.3 hPa | 0 mm | - | 689 W/m² | - |
| 1788111916 | 22.22° C | 57% | 1013.3 hPa | 0 mm | - | 680 W/m² | - |
| 1788111616 | 22.78° C | 57% | 1013.4 hPa | 0 mm | - | 668 W/m² | - |
| 1788111316 | 22.78° C | 58% | 1013.4 hPa | 0 mm | - | 655 W/m² | - |
| 1788111016 | 22.22° C | 58% | 1013.4 hPa | 0 mm | - | 644 W/m² | - |
| 1788110716 | 22.78° C | 58% | 1013.4 hPa | 0 mm | - | 632 W/m² | - |
| 1788110416 | 22.22° C | 60% | 1013.4 hPa | 0 mm | - | 620 W/m² | - |
| 1788110116 | 22.22° C | 60% | 1013.4 hPa | 0 mm | - | 609 W/m² | - |
| 1788109816 | 22.22° C | 60% | 1013.3 hPa | 0 mm | - | 595 W/m² | - |
| 1788109516 | 22.22° C | 61% | 1013.3 hPa | 0 mm | - | 583 W/m² | - |
| 1788109216 | 21.67° C | 61% | 1013.3 hPa | 0 mm | - | 570 W/m² | - |
| 1788108916 | 21.67° C | 62% | 1013.3 hPa | 0 mm | - | 556 W/m² | - |
| 1788108616 | 21.67° C | 62% | 1013.3 hPa | 0 mm | - | 542 W/m² | - |
| 1788108316 | 21.11° C | 62% | 1013.3 hPa | 0 mm | - | 529 W/m² | - |
| 1788108016 | 21.11° C | 61% | 1013.4 hPa | 0 mm | - | 515 W/m² | - |
| 1788107716 | 20.56° C | 61% | 1013.4 hPa | 0 mm | - | 499 W/m² | - |
| 1788107416 | 20.56° C | 63% | 1013.4 hPa | 0 mm | - | 485 W/m² | - |
| 1788107116 | 20° C | 62% | 1013.3 hPa | 0 mm | - | 470 W/m² | - |
| 1788106816 | 20° C | 65% | 1013.4 hPa | 0 mm | - | 454 W/m² | - |
| 1788106516 | 20° C | 65% | 1013.4 hPa | 0 mm | - | 439 W/m² | - |
| 1788106216 | 19.44° C | 68% | 1013.5 hPa | 0 mm | - | 423 W/m² | - |
| 1788105916 | 18.89° C | 69% | 1013.5 hPa | 0 mm | - | 408 W/m² | - |
* Rain latest hour (hover to see other rain measurements)
** Current wind speed in m/s (hover to see current wind gust speed)